FENGYUN 1C DEB, 30726

Orbit data source: Space-Track

FENGYUN 1C DEB, 30726 is space debris in SSO originally from a launch on Mon, 10 May 1999 UTC launched from the Taiyaun Space Center, China (TSC). Fengyun 1C debris stems from the Chinese weather satellite Fengyun-1C, which was intentionally destroyed by a Chinese anti-satellite missile in 2007. This event dramatically increased the amount of space debris, with thousands of trackable fragments posing hazards to satellites and human spaceflight. The Fengyun 1C debris cloud has become a focal point in discussions about space sustainability and the need for international regulations to prevent the creation of new debris.

Loading next visibility...
Identifier
30726, 1999-025ASL
Orbit
SSO
Country
Flag of CNCN / PRC
Related business
Manufacturer
Unknown
Mission
Spacecraft
Bus & Motor
Unknown
Mass
Unknown
Launch date (UTC)
1999-05-10 (27 years ago)
Launch vehicle
Unknown
Launch site
Taiyaun Space Center, China (TSC)
Object type
Payload
Rocket body
Debris
Shape & HBR
Unknown shape, 0.1 m
Radar Cross Section
Small (<0.1 m²)

Expand to show TLE details & history
Last TLE update: 10 hours ago

TLE from 10 hours ago
0 FENGYUN 1C DEB
1 30726U 99025ASL 26166.28235284  .00001610  00000-0  91107-3 0  9997
2 30726  99.2650 178.4561 0080361  73.1013  54.2670 14.10017369985835
Epoch: 2026-06-15T06:46Z
TLE epoch observation values (Epoch: 2026-06-15T06:46:35.285Z)
Latitude
51.03793°
Longitude
4.81323°
Altitude
833.791 km
Speed
7.458 km/s
True Right ascension
00h 40m 07s
True Declination
50° 52' 17"
Sunlit
Object was in daylight at epoch
Visualization orbit readout
Latitude
Unknown
Longitude
Unknown
Altitude
Unknown
Speed
Unknown
Apparent Right ascension
Unknown
Apparent Declination
Unknown
Sunlit
N/A
Visualization observer readout
Local Sidereal Time
03:43:55
Azimuth
Unknown
Elevation
Unknown
Doppler factor
Unknown
Orbital elements
Apogee altitude
914.65 km
Perigee altitude
798.373 km
Semi-major axis
7,234.648 km
Eccentricity
0.00804
Inclination
99.265°
RAAN
178.4561°
Arg. of periapsis
73.1013°
True anomaly
55.0189°
Mean anomaly
54.267°
Eccentric anomaly
54.64251°
Mean motion
3.52709 °/min
Orbital period
102.07 mins
BSTAR
0.00091107
Loading maneuver chart data...
Computing Atmospheric mass density...
Loading historical data...
Loading historical data...
Loading historical data...
Loading historical data...
Loading historical data...
Loading historical data...
Loading historical data...

Documentation

Showing up to 5 results
|